TimeEDT,TemperatureF,Dew PointF,Humidity,Sea Level PressureIn,VisibilityMPH,Wind Direction,Wind SpeedMPH,Gust SpeedMPH,PrecipitationIn,Events,Conditions,WindDirDegrees,DateUTC
12:51 AM,68.0,57.2,68,30.11,10.0,SW,6.9,-,N/A,,Clear,220,2013-04-09 04:51:00
1:51 AM,66.9,57.0,70,30.09,10.0,Calm,Calm,-,N/A,,Clear,0,2013-04-09 05:51:00
2:51 AM,64.4,57.2,77,30.09,10.0,Calm,Calm,-,N/A,,Clear,0,2013-04-09 06:51:00
3:51 AM,62.1,57.0,84,30.07,10.0,Calm,Calm,-,N/A,,Clear,0,2013-04-09 07:51:00
4:51 AM,61.0,57.0,87,30.06,10.0,Calm,Calm,-,N/A,,Clear,0,2013-04-09 08:51:00
5:51 AM,60.1,55.9,86,30.07,10.0,Calm,Calm,-,N/A,,Clear,0,2013-04-09 09:51:00
6:51 AM,57.0,54.0,89,30.10,8.0,ESE,3.5,-,N/A,,Clear,120,2013-04-09 10:51:00
7:51 AM,59.0,55.9,90,30.12,8.0,East,3.5,-,N/A,,Clear,80,2013-04-09 11:51:00
8:51 AM,63.0,55.9,78,30.14,10.0,Calm,Calm,-,N/A,,Clear,0,2013-04-09 12:51:00
9:51 AM,70.0,57.0,63,30.14,10.0,SSE,5.8,-,N/A,,Clear,150,2013-04-09 13:51:00
10:51 AM,75.0,57.0,53,30.15,10.0,South,8.1,-,N/A,,Clear,180,2013-04-09 14:51:00
11:51 AM,79.0,55.9,45,30.15,10.0,South,10.4,-,N/A,,Clear,190,2013-04-09 15:51:00
12:51 PM,81.0,55.9,42,30.16,10.0,South,6.9,-,N/A,,Clear,180,2013-04-09 16:51:00
1:51 PM,82.9,55.9,39,30.15,10.0,West,5.8,16.1,N/A,,Scattered Clouds,280,2013-04-09 17:51:00
2:51 PM,84.0,55.0,37,30.12,10.0,WSW,4.6,-,N/A,,Mostly Cloudy,240,2013-04-09 18:51:00
3:51 PM,84.9,54.0,34,30.10,10.0,WSW,11.5,16.1,N/A,,Mostly Cloudy,240,2013-04-09 19:51:00
4:51 PM,84.9,53.1,33,30.09,10.0,West,5.8,-,N/A,,Scattered Clouds,270,2013-04-09 20:51:00
5:51 PM,84.9,53.1,33,30.08,10.0,SW,9.2,-,N/A,,Scattered Clouds,220,2013-04-09 21:51:00
6:51 PM,84.0,52.0,33,30.07,10.0,SSW,8.1,-,N/A,,Partly Cloudy,210,2013-04-09 22:51:00
7:51 PM,81.0,54.0,39,30.06,10.0,South,5.8,-,N/A,,Clear,180,2013-04-09 23:51:00
8:51 PM,77.0,54.0,45,30.07,10.0,SSE,5.8,-,N/A,,Clear,150,2013-04-10 00:51:00
9:51 PM,73.9,55.0,52,30.09,10.0,Calm,Calm,-,N/A,,Clear,0,2013-04-10 01:51:00
10:51 PM,73.0,55.9,55,30.10,10.0,Calm,Calm,-,N/A,,Clear,0,2013-04-10 02:51:00
11:51 PM,70.0,57.0,63,30.10,9.0,Calm,Calm,-,N/A,,Clear,0,2013-04-10 03:51:00